Regional Weather Roundup
Issued by NWS

Home | Current Version | Previous Version | Graphics & Text | Print | Product List | Glossary On
Versions: 1 2 3 4 5 6 7 8 9 10 11 12 13 14 15 16 17 18 19 20 21 22 23 24 25 26 27 28 29 30 31 32 33 34 35 36 37 38 39 40 41 42 43 44 45 46 47 48 49 50
000
ASUS43 KMPX 230710
RWRMN
WEATHER ROUNDUP FOR MINNESOTA
NATIONAL WEATHER SERVICE TWIN CITIES/CHANHASSEN MN
200 AM CDT SUN JUL 23 2017


NOTE: "FAIR" INDICATES FEW OR NO CLOUDS BELOW 12,000 FEET WITH NO
SIGNIFICANT WEATHER AND/OR OBSTRUCTIONS TO VISIBILITY. N/A MEANS
CURRENT SKY AND/OR WEATHER CONDITIONS ARE NOT AVAILABLE.

MNZ060>063-068>070-230800-
   Twin Cities Metro

CITY           SKY/WX    TMP DP  RH WIND       PRES   REMARKS
TWIN CITIES    PTCLDY    72  61  68 NW6       29.83F
ST PAUL        CLEAR     69  65  86 NE3       29.83F
CRYSTAL        CLEAR     68  58  70 NW5       29.83F
BLAINE         CLEAR     70  59  68 NW5       29.84S
LAKEVILLE      PTCLDY    64  64 100 CALM      29.84F
EDEN PRAIRIE   PTCLDY    72  63  73 NW6       29.83F
SOUTH ST PAUL  CLEAR     71  62  74 CALM      29.83S
LAKE ELMO      FAIR      63  61  94 NW3       29.85S
$$
MNZ001>005-007-008-013>017-022>024-027-028-230800-
   Northwest Minnesota

CITY           SKY/WX    TMP DP  RH WIND       PRES   REMARKS
BEMIDJI        CLOUDY    61  58  90 W9        29.88R
HALLOCK        CLOUDY    63  61  94 NW8       29.91R
ROSEAU         PTCLDY    61  55  82 NW6       29.88S
WARROAD        CLOUDY    61  55  82 NW3       29.88R
THIEF RVR FALL MOCLDY    61  59  94 NW9       29.91S
CROOKSTON      CLEAR     61  59  94 N7        29.91S
FOSSTON        CLOUDY    61  57  88 NW8       29.90S
DETROIT LAKES  MOCLDY    61  57  88 NW6       29.92R
MOORHEAD       CLEAR     63  57  82 NW8       29.92S
PARK RAPIDS    CLEAR     58  55  90 W5        29.89S
MAHNOMEN       FAIR      59  58  96 NW8       29.90S
$$
MNZ006-009>011-018-025>026-230800-
   North Central Minnesota

CITY           SKY/WX    TMP DP  RH WIND       PRES   REMARKS
BAUDETTE       CLEAR     60  59  96 N5        29.85R
FLAG ISLAND    PTCLDY    64  61  88 NE9       29.86R
INTL FALLS     FOG       58  56  93 CALM      29.84S VSB 3/4
WASKISH        CLOUDY    63  57  82 NW12      29.86S
BIG FORK       MOCLDY    55  54  94 CALM      29.86R FOG
LONGVILLE      PTCLDY    59  55  88 CALM      29.87S
GRAND RAPIDS   PTCLDY    62  58  86 NW9       29.87S
CRANE LAKE     MOCLDY    59  57  94 CALM      29.85R
ORR            RAIN      61  57  88 MISG      29.81F
COOK           LGT RAIN  61  59  94 CALM      29.83S
WALKER         CLOUDY    59  56  90 NW3       29.87F
$$
MNZ012-019>021-037-230800-
   Northeast Minnesota

CITY           SKY/WX    TMP DP  RH WIND       PRES   REMARKS
DULUTH         CLOUDY    54  54 100 SE5       29.84F
ELY            LGT RAIN  59  59 100 NW3       29.82S
HIBBING        CLEAR     59  58  96 NW5       29.83F
EVELETH        CLEAR     60  59  95 W7        29.84S
DULUTH HARBOR  CLOUDY    57  55  94 NE8       29.84F
TWO HARBORS    CLOUDY    57  54  88 NE3       29.82F
SILVER BAY     CLOUDY    55  54  94 CALM      29.82S
GRAND MARAIS     N/A     56  54  93 CALM      29.82F
G MARAIS ARPRT CLOUDY    54  50  87 N5        29.84F
$$
MNZ029>031-032-039>041-046>048-054>057-064-230800-
   West Central Minnesota

CITY           SKY/WX    TMP DP  RH WIND       PRES   REMARKS
FERGUS FALLS   CLEAR     61  57  88 W5        29.91S
WHEATON        CLEAR     63  57  82 W5        29.94S
MORRIS         CLEAR     64  61  88 NW6       29.91S
ALEXANDRIA     CLEAR     65  58  78 NW7       29.92S
ELBOW LAKE     FAIR      63  59  85 W7        29.92S
WADENA         CLEAR     59  55  88 W3        29.89S
GLENWOOD       CLEAR     64  61  88 NW5       29.91S
APPLETON       CLEAR     68  61  77 N7        29.91R
BENSON         PTCLDY    66  61  82 N5        29.92R
ORTONVILLE     CLEAR     66  57  72 N7        29.92S
MADISON        CLEAR     70  61  73 NW9       29.92S
WILLMAR        FAIR      68  64  88 N6        29.90S
$$
MNZ033>034-036-042>043-049>051-058-059-230800-
   Central Minnesota

CITY           SKY/WX    TMP DP  RH WIND       PRES   REMARKS
ST CLOUD       MOCLDY    67  59  75 NW6       29.86S
SAUK CENTRE    FAIR      67  59  76 NW8       29.90S
PAYNESVILLE    PTCLDY    69  60  72 NW5       29.89S
AITKIN         PTCLDY    59  55  88 W3        29.85S
PINE RIVER     CLEAR     63  57  82 CALM      29.91S
BRAINERD       CLEAR     65  56  72 NW7       29.87S
STAPLES        CLEAR     59  54  82 W5        29.89S
LONG PRAIRIE   FAIR      63  55  77 W6        29.90S
LITTLE FALLS   PTCLDY    61  55  82 CALM      29.88S
LITCHFIELD     MOCLDY    72  63  73 W6        29.88S
BUFFALO        PTCLDY    71  56  60 CALM      29.87S
MAPLE LAKE     PTCLDY    65  62  89 CALM      29.87S
HUTCHINSON     MOCLDY    69  66  90 W3        29.88S
$$
MNZ037-044-045-052-053-230800-
   East Central Minnesota

CITY           SKY/WX    TMP DP  RH WIND       PRES   REMARKS
PRINCETON      MOCLDY    66  57  72 NW3       29.86S
MORA           MOCLDY    64  55  72 NW6       29.87S
CAMBRIDGE      CLOUDY    72  55  56 NW5       29.83S
RUSH CITY      CLOUDY    66  57  73 NW5       29.84S
MOOSE LAKE     CLEAR     59  55  88 CALM      29.83S
HINCKLEY       PTSUNNY   68  57  68 W3        29.84S
CLOQUET        FOG       55  55 100 CALM      29.84F VSB 1/2
MCGREGOR       CLEAR     63  55  77 W5        29.85F
$$
MNZ071>073-080-081-089-090-097-098-230800-
   Southwest Minnesota

CITY           SKY/WX    TMP DP  RH WIND       PRES   REMARKS
MONTEVIDEO     PTCLDY    68  61  77 N6        29.90S
GRANITE FALLS  CLEAR     70  62  75 NW9       29.90R
CANBY          CLEAR     67  62  84 CALM      29.94R
MARSHALL       CLEAR     68  63  84 NW10      29.91R
REDWOOD FALLS  PTCLDY    70  66  87 NE6       29.86S
OLIVIA         PTCLDY    68  63  83 NW5       29.87F
PIPESTONE      CLEAR     72  59  64 N12       29.94S
WINDOM         CLEAR     66  63  88 SW5       29.89F
WORTHINGTON    CLEAR     66  62  87 SW8       29.92S
JACKSON        CLEAR     66  63  88 CALM      29.90F
SLAYTON        CLEAR     70  60  70 W8        29.93R
$$
MNZ065>067-074>077-082>085-091>093-230800-
   South Central Minnesota

CITY           SKY/WX    TMP DP  RH WIND       PRES   REMARKS
MANKATO        CLEAR     69  66  90 SW5       29.84F
NEW ULM        CLEAR     66  64  94 W6        29.85S
ST JAMES       CLEAR     70  66  88 SW5       29.87F
FAIRMONT       CLEAR     69  67  93 CALM      29.88S
GLENCOE        PTCLDY    68  65  92 NW5       29.85S
FARIBAULT      CLEAR     64  63  94 CALM      29.85S
OWATONNA       CLEAR     66  64  94 CALM      29.84F
WASECA         CLEAR     63  63 100 CALM      29.86F
ALBERT LEA     CLEAR     70  66  88 CALM        N/A  FOG
$$
MNZ078>079-086>088-094>096-230800-
   Southeast Minnesota

CITY           SKY/WX    TMP DP  RH WIND       PRES   REMARKS
ROCHESTER      CLEAR     66  65  96 W5        29.86F
RED WING       CLEAR     64  61  88 CALM      29.82S
STANTON        CLEAR     65  63  93 CALM      29.83S
DODGE CENTER   CLEAR     64  63  94 CALM      29.86F
WINONA         FOG       70  68  94 CALM      29.82F VSB<1/4
AUSTIN         CLEAR     70  66  88 CALM      29.86S
PRESTON        CLEAR     67  65  93 SW6       29.87S
$$
ABBREVIATIONS USED IN REMARKS
   TC - TEMPERATURES IN CELSIUS
  WCI - WIND CHILL INDEX
   HX - HEAT INDEX
  VSB - VISIBILITY
$$




USA.gov is the U.S. government's official web portal to all federal, state and local government web resources and services.